| time (UTC) | temp F | wind direction | speed knots | gust knots | rain 1hr in | rain 24hr in | rain mn in | humidity % | barometer mb |
| 20260902074604 | 78 | 156 | 0.0 | 0.0 | 0.00 | 0.00 | 0.00 | 78 | 1014.5 |
| 20260902074103 | 79 | 0 | 0.0 | 0.0 | 0.00 | 0.00 | 0.00 | 77 | 1014.8 |
| 20260902073203 | 79 | 155 | 0.0 | 0.9 | 0.00 | 0.00 | 0.00 | 76 | 1014.9 |
| 20260902073105 | 79 | 156 | 0.0 | 0.9 | 0.00 | 0.00 | 0.00 | 76 | 1014.6 |
| 20260902071503 | 80 | 156 | 0.0 | 0.9 | 0.00 | 0.00 | 0.00 | 74 | 1014.7 |
| 20260902071403 | 80 | 156 | 0.0 | 0.9 | 0.00 | 0.00 | 0.00 | 74 | 1015.0 |
| 20260902070503 | 80 | 0 | 0.0 | 0.0 | 0.00 | 0.00 | 0.00 | 73 | 1015.1 |
| 20260902070108 | 80 | 156 | 0.0 | 0.0 | 0.00 | 0.00 | 0.00 | 73 | 1014.7 |
| 20260902065603 | 81 | 0 | 0.0 | 0.0 | 0.00 | 0.00 | 0.00 | 72 | 1015.2 |
| 20260902064703 | 81 | 0 | 0.0 | 0.0 | 0.00 | 0.00 | 0.00 | 71 | 1015.2 |
| 20260902064502 | 81 | 156 | 0.0 | 0.9 | 0.00 | 0.00 | 0.00 | 71 | 1014.9 |
| 20260902063803 | 81 | 156 | 0.0 | 0.9 | 0.00 | 0.00 | 0.00 | 71 | 1015.2 |
| 20260902063109 | 81 | 156 | 0.0 | 1.7 | 0.00 | 0.00 | 0.00 | 70 | 1014.7 |
| 20260902062903 | 81 | 155 | 0.9 | 1.7 | 0.00 | 0.00 | 0.00 | 70 | 1015.1 |
| 20260902062003 | 82 | 155 | 0.9 | 2.6 | 0.00 | 0.00 | 0.00 | 70 | 1015.1 |
| 20260902061614 | 81 | 156 | 0.0 | 2.6 | 0.00 | 0.00 | 0.00 | 70 | 1014.7 |
| 20260902061103 | 82 | 155 | 1.7 | 3.5 | 0.00 | 0.00 | 0.00 | 69 | 1015.1 |
| 20260902060203 | 82 | 154 | 1.7 | 2.6 | 0.00 | 0.00 | 0.00 | 69 | 1015.1 |
| 20260902060005 | 82 | 154 | 0.9 | 3.5 | 0.00 | 0.00 | 0.00 | 68 | 1014.7 |
| 20260902055306 | 83 | 154 | 2.6 | 3.5 | 0.00 | 0.00 | 0.00 | 68 | 1014.9 |
| 20260902054616 | 83 | 144 | 1.7 | 4.3 | 0.00 | 0.00 | 0.00 | 67 | 1014.5 |
| 20260902054403 | 83 | 148 | 2.6 | 7.0 | 0.00 | 0.00 | 0.00 | 67 | 1014.8 |
| 20260902053503 | 84 | 152 | 1.7 | 5.2 | 0.00 | 0.00 | 0.00 | 66 | 1014.8 |
| 20260902053016 | 83 | 153 | 0.9 | 4.3 | 0.00 | 0.00 | 0.00 | 66 | 1014.5 |
| 20260902051703 | 84 | 143 | 2.6 | 4.3 | 0.00 | 0.00 | 0.00 | 65 | 1014.6 |
| 20260902051604 | 84 | 197 | 2.6 | 4.3 | 0.00 | 0.00 | 0.00 | 65 | 1014.3 |
| 20260902050803 | 84 | 146 | 3.5 | 6.1 | 0.00 | 0.00 | 0.00 | 64 | 1014.6 |
| 20260902050006 | 84 | 125 | 3.5 | 6.1 | 0.00 | 0.00 | 0.00 | 64 | 1014.2 |
| 20260902045903 | 84 | 145 | 3.5 | 5.2 | 0.00 | 0.00 | 0.00 | 64 | 1014.4 |
| 20260902045003 | 84 | 142 | 2.6 | 5.2 | 0.00 | 0.00 | 0.00 | 63 | 1014.5 |
| 20260902044509 | 84 | 129 | 1.7 | 6.1 | 0.00 | 0.00 | 0.00 | 63 | 1014.2 |
| 20260902043203 | 85 | 122 | 0.9 | 3.5 | 0.00 | 0.00 | 0.00 | 62 | 1014.4 |
| 20260902043005 | 85 | 135 | 1.7 | 3.5 | 0.00 | 0.00 | 0.00 | 62 | 1014.0 |
| 20260902042308 | 85 | 133 | 1.7 | 2.6 | 0.00 | 0.00 | 0.00 | 61 | 1014.3 |
| 20260902041508 | 85 | 150 | 1.7 | 4.3 | 0.00 | 0.00 | 0.00 | 61 | 1014.1 |
| 20260902041403 | 86 | 124 | 1.7 | 4.3 | 0.00 | 0.00 | 0.00 | 61 | 1014.4 |
| 20260902040503 | 86 | 123 | 1.7 | 4.3 | 0.00 | 0.00 | 0.00 | 61 | 1014.4 |
| 20260902040103 | 85 | 88 | 0.9 | 4.3 | 0.00 | 0.00 | 0.00 | 60 | 1014.1 |
| 20260902035603 | 86 | 138 | 0.9 | 4.3 | 0.00 | 0.00 | 0.00 | 60 | 1014.4 |
| 20260902034703 | 86 | 133 | 1.7 | 3.5 | 0.00 | 0.00 | 0.00 | 60 | 1014.3 |
| 20260902034603 | 86 | 111 | 0.9 | 3.5 | 0.00 | 0.00 | 0.00 | 60 | 1014.0 |
| 20260902033803 | 86 | 133 | 2.6 | 3.5 | 0.00 | 0.00 | 0.00 | 60 | 1014.4 |
| 20260902033008 | 86 | 139 | 1.7 | 4.3 | 0.00 | 0.00 | 0.00 | 60 | 1014.1 |
| 20260902032903 | 86 | 146 | 2.6 | 4.3 | 0.00 | 0.00 | 0.00 | 60 | 1014.4 |
| 20260902032003 | 86 | 144 | 2.6 | 5.2 | 0.00 | 0.00 | 0.00 | 60 | 1014.3 |
| 20260902031605 | 86 | 124 | 1.7 | 5.2 | 0.00 | 0.00 | 0.00 | 60 | 1013.9 |
| 20260902031103 | 87 | 144 | 2.6 | 6.1 | 0.00 | 0.00 | 0.00 | 61 | 1014.1 |
| 20260902030005 | 86 | 165 | 2.6 | 5.2 | 0.00 | 0.00 | 0.00 | 61 | 1013.6 |
| 20260902025306 | 87 | 145 | 1.7 | 5.2 | 0.00 | 0.00 | 0.00 | 61 | 1013.9 |
| 20260902024504 | 87 | 143 | 0.9 | 4.3 | 0.00 | 0.00 | 0.00 | 61 | 1013.5 |
| 20260902023503 | 88 | 139 | 1.7 | 5.2 | 0.00 | 0.00 | 0.00 | 61 | 1013.7 |
| 20260902023009 | 87 | 137 | 0.9 | 6.1 | 0.00 | 0.00 | 0.00 | 62 | 1013.3 |
| 20260902022603 | 88 | 140 | 2.6 | 5.2 | 0.00 | 0.00 | 0.00 | 62 | 1013.6 |
| 20260902021703 | 88 | 143 | 2.6 | 5.2 | 0.00 | 0.00 | 0.00 | 63 | 1013.4 |
| 20260902021514 | 87 | 128 | 1.7 | 5.2 | 0.00 | 0.00 | 0.00 | 63 | 1013.0 |
| 20260902020006 | 88 | 142 | 0.9 | 4.3 | 0.00 | 0.00 | 0.00 | 63 | 1012.8 |
| 20260902015903 | 88 | 133 | 1.7 | 4.3 | 0.00 | 0.00 | 0.00 | 63 | 1013.1 |
| 20260902015003 | 89 | 133 | 0.9 | 2.6 | 0.00 | 0.00 | 0.00 | 63 | 1012.9 |
| 20260902014509 | 89 | 133 | 0.0 | 1.7 | 0.00 | 0.00 | 0.00 | 62 | 1012.5 |
| 20260902014103 | 89 | 133 | 0.0 | 1.7 | 0.00 | 0.00 | 0.00 | 62 | 1012.7 |
| 20260902013203 | 90 | 133 | 0.0 | 1.7 | 0.00 | 0.00 | 0.00 | 61 | 1012.6 |
| 20260902013105 | 90 | 133 | 0.0 | 1.7 | 0.00 | 0.00 | 0.00 | 60 | 1012.3 |
| 20260902012308 | 90 | 133 | 0.9 | 2.6 | 0.00 | 0.00 | 0.00 | 59 | 1012.5 |
| 20260902011506 | 91 | 133 | 0.0 | 2.6 | 0.00 | 0.00 | 0.00 | 58 | 1012.2 |
| 20260902011403 | 91 | 133 | 0.0 | 2.6 | 0.00 | 0.00 | 0.00 | 58 | 1012.5 |
| 20260902010503 | 92 | 0 | 0.0 | 0.0 | 0.00 | 0.00 | 0.00 | 57 | 1012.5 |
| 20260902010105 | 92 | 133 | 0.0 | 0.0 | 0.00 | 0.00 | 0.00 | 56 | 1012.1 |
| 20260902005603 | 92 | 0 | 0.0 | 0.0 | 0.00 | 0.00 | 0.00 | 55 | 1012.4 |
| 20260902004703 | 93 | 0 | 0.0 | 0.0 | 0.00 | 0.00 | 0.00 | 55 | 1012.3 |
| 20260902004506 | 93 | 133 | 0.0 | 0.0 | 0.00 | 0.00 | 0.00 | 55 | 1011.9 |
| 20260902003803 | 94 | 133 | 0.0 | 0.9 | 0.00 | 0.00 | 0.00 | 53 | 1012.2 |
| 20260902003008 | 94 | 133 | 0.0 | 1.7 | 0.00 | 0.00 | 0.00 | 52 | 1011.9 |
| 20260902002903 | 94 | 133 | 0.9 | 1.7 | 0.00 | 0.00 | 0.00 | 52 | 1012.2 |
| 20260902002003 | 95 | 134 | 0.9 | 1.7 | 0.00 | 0.00 | 0.00 | 51 | 1012.3 |
| 20260902001508 | 94 | 135 | 0.9 | 2.6 | 0.00 | 0.00 | 0.00 | 51 | 1012.0 |
| 20260902001103 | 95 | 142 | 1.7 | 3.5 | 0.00 | 0.00 | 0.00 | 50 | 1012.3 |
| 20260902000011 | 95 | 153 | 0.9 | 4.3 | 0.00 | 0.00 | 0.00 | 50 | 1012.0 |
| 20260901235307 | 95 | 138 | 2.6 | 4.3 | 0.00 | 0.00 | 0.00 | 49 | 1012.4 |
| 20260901234503 | 95 | 121 | 1.7 | 6.1 | 0.00 | 0.00 | 0.00 | 49 | 1012.1 |
| 20260901234403 | 96 | 145 | 3.5 | 6.1 | 0.00 | 0.00 | 0.00 | 49 | 1012.4 |
| 20260901233503 | 96 | 161 | 3.5 | 7.8 | 0.00 | 0.00 | 0.00 | 48 | 1012.5 |
| 20260901233111 | 96 | 149 | 1.7 | 7.8 | 0.00 | 0.00 | 0.00 | 48 | 1012.2 |
| 20260901232603 | 97 | 138 | 2.6 | 6.1 | 0.00 | 0.00 | 0.00 | 47 | 1012.6 |
| 20260901231703 | 98 | 138 | 3.5 | 8.7 | 0.00 | 0.00 | 0.00 | 46 | 1012.6 |
| 20260901231609 | 97 | 114 | 3.5 | 8.7 | 0.00 | 0.00 | 0.00 | 47 | 1012.3 |
| 20260901230803 | 98 | 115 | 2.6 | 7.0 | 0.00 | 0.00 | 0.00 | 46 | 1012.6 |
| 20260901230012 | 97 | 108 | 0.9 | 6.1 | 0.00 | 0.00 | 0.00 | 46 | 1012.3 |
| 20260901225903 | 98 | 112 | 3.5 | 7.0 | 0.00 | 0.00 | 0.00 | 46 | 1012.7 |
| 20260901225003 | 98 | 155 | 4.3 | 9.6 | 0.00 | 0.00 | 0.00 | 46 | 1012.7 |
| 20260901224504 | 98 | 127 | 2.6 | 9.6 | 0.00 | 0.00 | 0.00 | 47 | 1012.5 |
| 20260901224103 | 99 | 169 | 5.2 | 9.6 | 0.00 | 0.00 | 0.00 | 46 | 1012.7 |
| 20260901223008 | 98 | 161 | 6.1 | 11.3 | 0.00 | 0.00 | 0.00 | 46 | 1012.4 |
| 20260901222306 | 99 | 157 | 6.1 | 10.4 | 0.00 | 0.00 | 0.00 | 45 | 1012.9 |
| 20260901221505 | 99 | 159 | 6.1 | 9.6 | 0.00 | 0.00 | 0.00 | 45 | 1012.6 |
| 20260901221403 | 99 | 151 | 5.2 | 9.6 | 0.00 | 0.00 | 0.00 | 45 | 1012.9 |
| 20260901220503 | 99 | 154 | 5.2 | 7.8 | 0.00 | 0.00 | 0.00 | 45 | 1012.8 |
| 20260901220134 | 99 | 171 | 5.2 | 8.7 | 0.00 | 0.00 | 0.00 | 46 | 1012.6 |
| 20260901214703 | 100 | 158 | 5.2 | 9.6 | 0.00 | 0.00 | 0.00 | 45 | 1012.9 |
| 20260901214503 | 99 | 137 | 4.3 | 9.6 | 0.00 | 0.00 | 0.00 | 44 | 1012.6 |
| 20260901213802 | 100 | 156 | 6.1 | 9.6 | 0.00 | 0.00 | 0.00 | 45 | 1013.0 |
| 20260901213120 | 100 | 132 | 7.0 | 10.4 | 0.00 | 0.00 | 0.00 | 44 | 1012.7 |
| 20260901212903 | 100 | 153 | 6.1 | 10.4 | 0.00 | 0.00 | 0.00 | 44 | 1013.0 |
| 20260901212002 | 100 | 143 | 5.2 | 11.3 | 0.00 | 0.00 | 0.00 | 45 | 1013.1 |
| 20260901211503 | 100 | 153 | 3.5 | 9.6 | 0.00 | 0.00 | 0.00 | 46 | 1012.8 |
| 20260901211103 | 100 | 147 | 5.2 | 9.6 | 0.00 | 0.00 | 0.00 | 44 | 1013.2 |
| 20260901210203 | 100 | 157 | 7.0 | 13.0 | 0.00 | 0.00 | 0.00 | 45 | 1013.2 |
| 20260901210017 | 100 | 148 | 7.0 | 13.9 | 0.00 | 0.00 | 0.00 | 45 | 1012.9 |
| 20260901205306 | 101 | 162 | 7.0 | 13.0 | 0.00 | 0.00 | 0.00 | 45 | 1013.2 |
| 20260901204604 | 101 | 165 | 7.8 | 13.0 | 0.00 | 0.00 | 0.00 | 45 | 1012.9 |
| 20260901204403 | 101 | 164 | 6.1 | 13.0 | 0.00 | 0.00 | 0.00 | 45 | 1013.2 |
| 20260901203503 | 100 | 138 | 4.3 | 9.6 | 0.00 | 0.00 | 0.00 | 46 | 1013.4 |
| 20260901203110 | 99 | 165 | 3.5 | 7.0 | 0.00 | 0.00 | 0.00 | 46 | 1013.1 |
| 20260901202603 | 100 | 127 | 4.3 | 12.2 | 0.00 | 0.00 | 0.00 | 45 | 1013.5 |
| 20260901201703 | 101 | 154 | 2.6 | 8.7 | 0.00 | 0.00 | 0.00 | 44 | 1013.6 |
| 20260901201505 | 100 | 95 | 2.6 | 6.1 | 0.00 | 0.00 | 0.00 | 45 | 1013.2 |
| 20260901200803 | 101 | 140 | 2.6 | 7.0 | 0.00 | 0.00 | 0.00 | 44 | 1013.7 |
| 20260901200005 | 100 | 106 | 0.9 | 4.3 | 0.00 | 0.00 | 0.00 | 45 | 1013.5 |
| 20260901195903 | 100 | 84 | 2.6 | 6.1 | 0.00 | 0.00 | 0.00 | 45 | 1013.9 |
| 20260901195002 | 101 | 116 | 2.6 | 7.8 | 0.00 | 0.00 | 0.00 | 44 | 1014.0 |
| 20260901194603 | 100 | 130 | 0.9 | 5.2 | 0.00 | 0.00 | 0.00 | 46 | 1013.7 |
| 20260901194103 | 100 | 181 | 2.6 | 6.1 | 0.00 | 0.00 | 0.00 | 46 | 1014.1 |
| 20260901193202 | 100 | 163 | 3.5 | 11.3 | 0.00 | 0.00 | 0.00 | 46 | 1014.3 |
| 20260901193004 | 100 | 299 | 2.6 | 11.3 | 0.00 | 0.00 | 0.00 | 45 | 1014.0 |
| 20260901192306 | 101 | 151 | 4.3 | 8.7 | 0.00 | 0.00 | 0.00 | 44 | 1014.3 |
| 20260901191617 | 100 | 137 | 6.1 | 9.6 | 0.00 | 0.00 | 0.00 | 46 | 1014.1 |
| 20260901191402 | 100 | 125 | 3.5 | 7.8 | 0.00 | 0.00 | 0.00 | 47 | 1014.4 |
| 20260901190005 | 100 | 176 | 7.0 | 10.4 | 0.00 | 0.00 | 0.00 | 45 | 1014.1 |
| 20260901185603 | 100 | 162 | 6.1 | 10.4 | 0.00 | 0.00 | 0.00 | 45 | 1014.4 |
| 20260901184702 | 100 | 162 | 4.3 | 8.7 | 0.00 | 0.00 | 0.00 | 46 | 1014.6 |
| 20260901184508 | 99 | 159 | 4.3 | 8.7 | 0.00 | 0.00 | 0.00 | 45 | 1014.3 |
| 20260901183803 | 99 | 177 | 5.2 | 10.4 | 0.00 | 0.00 | 0.00 | 44 | 1014.8 |
| 20260901183009 | 98 | 180 | 5.2 | 11.3 | 0.00 | 0.00 | 0.00 | 44 | 1014.6 |
| 20260901182902 | 99 | 172 | 5.2 | 11.3 | 0.00 | 0.00 | 0.00 | 44 | 1014.9 |
| 20260901182002 | 99 | 174 | 5.2 | 10.4 | 0.00 | 0.00 | 0.00 | 44 | 1015.1 |
| 20260901181512 | 98 | 155 | 5.2 | 11.3 | 0.00 | 0.00 | 0.00 | 45 | 1014.9 |
| 20260901181102 | 98 | 171 | 7.0 | 11.3 | 0.00 | 0.00 | 0.00 | 46 | 1015.3 |
| 20260901180004 | 98 | 169 | 7.0 | 16.5 | 0.00 | 0.00 | 0.00 | 45 | 1015.2 |
| 20260901175305 | 98 | 172 | 6.1 | 13.0 | 0.00 | 0.00 | 0.00 | 47 | 1015.6 |
| 20260901174504 | 98 | 189 | 7.0 | 11.3 | 0.00 | 0.00 | 0.00 | 47 | 1015.4 |
| 20260901174403 | 98 | 148 | 5.2 | 10.4 | 0.00 | 0.00 | 0.00 | 49 | 1015.8 |
| 20260901173502 | 98 | 164 | 6.1 | 10.4 | 0.00 | 0.00 | 0.00 | 48 | 1015.9 |
| 20260901173003 | 98 | 183 | 5.2 | 9.6 | 0.00 | 0.00 | 0.00 | 49 | 1015.7 |
| 20260901172602 | 98 | 157 | 4.3 | 9.6 | 0.00 | 0.00 | 0.00 | 49 | 1016.1 |
| 20260901171702 | 98 | 150 | 3.5 | 8.7 | 0.00 | 0.00 | 0.00 | 50 | 1016.1 |
| 20260901171503 | 97 | 160 | 6.1 | 8.7 | 0.00 | 0.00 | 0.00 | 50 | 1015.7 |
| 20260901170802 | 97 | 138 | 2.6 | 7.8 | 0.00 | 0.00 | 0.00 | 52 | 1016.2 |
| 20260901170006 | 96 | 119 | 4.3 | 8.7 | 0.00 | 0.00 | 0.00 | 50 | 1016.0 |
| 20260901165902 | 97 | 152 | 4.3 | 8.7 | 0.00 | 0.00 | 0.00 | 51 | 1016.3 |
| 20260901165002 | 96 | 181 | 5.2 | 12.2 | 0.00 | 0.00 | 0.00 | 50 | 1016.5 |
| 20260901164504 | 96 | 134 | 2.6 | 12.2 | 0.00 | 0.00 | 0.00 | 51 | 1016.2 |
| 20260901164102 | 96 | 155 | 4.3 | 8.7 | 0.00 | 0.00 | 0.00 | 53 | 1016.6 |
| 20260901163202 | 95 | 178 | 1.7 | 8.7 | 0.00 | 0.00 | 0.00 | 52 | 1016.6 |
| 20260901163109 | 94 | 173 | 2.6 | 7.0 | 0.00 | 0.00 | 0.00 | 52 | 1016.3 |
| 20260901162305 | 95 | 161 | 3.5 | 6.1 | 0.00 | 0.00 | 0.00 | 54 | 1016.7 |
| 20260901161509 | 95 | 98 | 2.6 | 6.1 | 0.00 | 0.00 | 0.00 | 54 | 1016.5 |
| 20260901161402 | 95 | 157 | 2.6 | 6.1 | 0.00 | 0.00 | 0.00 | 54 | 1016.8 |
| 20260901160004 | 94 | 183 | 3.5 | 7.8 | 0.00 | 0.00 | 0.00 | 56 | 1016.5 |
| 20260901155602 | 94 | 162 | 2.6 | 6.1 | 0.00 | 0.00 | 0.00 | 56 | 1017.0 |
| 20260901154702 | 94 | 147 | 2.6 | 6.1 | 0.00 | 0.00 | 0.00 | 57 | 1016.9 |
| 20260901154602 | 93 | 135 | 3.5 | 5.2 | 0.00 | 0.00 | 0.00 | 58 | 1016.5 |
| 20260901153802 | 94 | 152 | 2.6 | 5.2 | 0.00 | 0.00 | 0.00 | 57 | 1016.9 |
| 20260901153110 | 93 | 159 | 2.6 | 5.2 | 0.00 | 0.00 | 0.00 | 57 | 1016.6 |
| 20260901152902 | 93 | 149 | 2.6 | 7.0 | 0.00 | 0.00 | 0.00 | 58 | 1016.9 |
| 20260901152002 | 93 | 183 | 1.7 | 7.0 | 0.00 | 0.00 | 0.00 | 59 | 1016.9 |
| 20260901151603 | 92 | 238 | 0.9 | 4.3 | 0.00 | 0.00 | 0.00 | 59 | 1016.6 |
| 20260901151102 | 92 | 190 | 1.7 | 5.2 | 0.00 | 0.00 | 0.00 | 60 | 1016.9 |
| 20260901150202 | 92 | 195 | 1.7 | 3.5 | 0.00 | 0.00 | 0.00 | 62 | 1017.0 |
| 20260901150107 | 91 | 284 | 0.9 | 4.3 | 0.00 | 0.00 | 0.00 | 61 | 1016.6 |
| 20260901145306 | 91 | 171 | 1.7 | 5.2 | 0.00 | 0.00 | 0.00 | 62 | 1017.0 |
| 20260901144505 | 90 | 153 | 1.7 | 4.3 | 0.00 | 0.00 | 0.00 | 65 | 1016.7 |
| 20260901144402 | 90 | 135 | 0.9 | 4.3 | 0.00 | 0.00 | 0.00 | 64 | 1017.0 |
| 20260901143502 | 89 | 171 | 0.9 | 1.7 | 0.00 | 0.00 | 0.00 | 65 | 1017.0 |
| 20260901143002 | 88 | 311 | 0.0 | 1.7 | 0.00 | 0.00 | 0.00 | 66 | 1016.7 |
| 20260901142602 | 88 | 152 | 0.9 | 2.6 | 0.00 | 0.00 | 0.00 | 67 | 1017.0 |
| 20260901141702 | 87 | 150 | 0.9 | 2.6 | 0.00 | 0.00 | 0.00 | 69 | 1017.1 |
| 20260901141605 | 87 | 145 | 0.9 | 2.6 | 0.00 | 0.00 | 0.00 | 69 | 1016.8 |
| 20260901140802 | 86 | 140 | 0.9 | 2.6 | 0.00 | 0.00 | 0.00 | 71 | 1017.1 |
| 20260901140105 | 84 | 131 | 0.0 | 2.6 | 0.00 | 0.00 | 0.00 | 72 | 1016.8 |
| 20260901135902 | 85 | 131 | 0.9 | 2.6 | 0.00 | 0.00 | 0.00 | 73 | 1017.1 |
| 20260901134615 | 82 | 59 | 0.0 | 1.7 | 0.00 | 0.00 | 0.00 | 76 | 1016.8 |
| 20260901133202 | 80 | 81 | 0.0 | 1.7 | 0.00 | 0.00 | 0.00 | 80 | 1017.2 |
| 20260901133003 | 79 | 59 | 0.0 | 1.7 | 0.00 | 0.00 | 0.00 | 81 | 1016.8 |
| 20260901132306 | 79 | 90 | 0.0 | 1.7 | 0.00 | 0.00 | 0.00 | 83 | 1017.1 |
| 20260901131511 | 77 | 92 | 0.0 | 1.7 | 0.00 | 0.00 | 0.00 | 85 | 1016.8 |
| 20260901131402 | 78 | 43 | 0.0 | 1.7 | 0.00 | 0.00 | 0.00 | 85 | 1017.0 |
| 20260901130502 | 76 | 0 | 0.0 | 0.0 | 0.00 | 0.00 | 0.00 | 88 | 1016.9 |
| 20260901130004 | 75 | 142 | 0.0 | 0.0 | 0.00 | 0.00 | 0.00 | 89 | 1016.6 |
| 20260901125602 | 75 | 0 | 0.0 | 0.0 | 0.00 | 0.00 | 0.00 | 89 | 1016.9 |
| 20260901124702 | 75 | 144 | 0.0 | 0.9 | 0.00 | 0.00 | 0.00 | 89 | 1016.8 |
| 20260901124605 | 74 | 142 | 0.0 | 0.9 | 0.00 | 0.00 | 0.00 | 89 | 1016.5 |
| 20260901123015 | 74 | 20 | 0.0 | 0.9 | 0.00 | 0.00 | 0.00 | 89 | 1016.4 |
| 20260901122902 | 74 | 13 | 0.0 | 0.9 | 0.00 | 0.00 | 0.00 | 89 | 1016.7 |
| 20260901122002 | 74 | 321 | 0.0 | 0.9 | 0.00 | 0.00 | 0.00 | 89 | 1016.5 |
| 20260901121503 | 74 | 321 | 0.0 | 0.9 | 0.00 | 0.00 | 0.00 | 89 | 1016.2 |
| 20260901121102 | 74 | 292 | 0.0 | 0.9 | 0.00 | 0.00 | 0.00 | 89 | 1016.4 |
| 20260901120202 | 74 | 0 | 0.0 | 0.0 | 0.00 | 0.00 | 0.00 | 88 | 1016.3 |
| 20260901120009 | 74 | 96 | 0.0 | 0.0 | 0.00 | 0.00 | 0.00 | 88 | 1016.0 |
| 20260901115306 | 75 | 0 | 0.0 | 0.0 | 0.00 | 0.00 | 0.00 | 88 | 1016.2 |
| 20260901114513 | 74 | 135 | 0.0 | 0.0 | 0.00 | 0.00 | 0.00 | 88 | 1015.8 |
| 20260901114402 | 75 | 0 | 0.0 | 0.0 | 0.00 | 0.00 | 0.00 | 88 | 1016.0 |
| 20260901113502 | 75 | 0 | 0.0 | 0.0 | 0.00 | 0.00 | 0.00 | 87 | 1015.9 |
| 20260901113003 | 74 | 144 | 0.0 | 0.0 | 0.00 | 0.00 | 0.00 | 87 | 1015.6 |
| 20260901112602 | 75 | 0 | 0.0 | 0.0 | 0.00 | 0.00 | 0.00 | 87 | 1015.9 |
| 20260901111702 | 75 | 0 | 0.0 | 0.0 | 0.00 | 0.00 | 0.00 | 87 | 1015.9 |
| 20260901111504 | 75 | 144 | 0.0 | 0.0 | 0.00 | 0.00 | 0.00 | 87 | 1015.6 |
| 20260901110802 | 75 | 0 | 0.0 | 0.0 | 0.00 | 0.00 | 0.00 | 87 | 1016.0 |
| 20260901110109 | 75 | 144 | 0.0 | 0.0 | 0.00 | 0.00 | 0.00 | 87 | 1015.6 |
| 20260901105902 | 75 | 0 | 0.0 | 0.0 | 0.00 | 0.00 | 0.00 | 87 | 1015.9 |
| 20260901104611 | 75 | 144 | 0.0 | 0.0 | 0.00 | 0.00 | 0.00 | 86 | 1015.5 |
| 20260901104102 | 76 | 0 | 0.0 | 0.0 | 0.00 | 0.00 | 0.00 | 86 | 1015.7 |
| 20260901103007 | 76 | 144 | 0.0 | 0.0 | 0.00 | 0.00 | 0.00 | 85 | 1015.5 |
| 20260901102306 | 76 | 0 | 0.0 | 0.0 | 0.00 | 0.00 | 0.00 | 85 | 1015.7 |
| 20260901101507 | 76 | 144 | 0.0 | 0.0 | 0.00 | 0.00 | 0.00 | 84 | 1015.3 |
| 20260901101402 | 76 | 0 | 0.0 | 0.0 | 0.00 | 0.00 | 0.00 | 85 | 1015.6 |
| 20260901100009 | 76 | 144 | 0.0 | 0.0 | 0.00 | 0.00 | 0.00 | 85 | 1015.3 |
| 20260901094702 | 76 | 0 | 0.0 | 0.0 | 0.00 | 0.00 | 0.00 | 84 | 1015.7 |
| 20260901094604 | 76 | 144 | 0.0 | 0.0 | 0.00 | 0.00 | 0.00 | 84 | 1015.4 |
| 20260901093802 | 76 | 0 | 0.0 | 0.0 | 0.00 | 0.00 | 0.00 | 84 | 1015.7 |
| 20260901093004 | 76 | 144 | 0.0 | 0.0 | 0.00 | 0.00 | 0.00 | 84 | 1015.4 |
| 20260901092902 | 77 | 0 | 0.0 | 0.0 | 0.00 | 0.00 | 0.00 | 84 | 1015.6 |
| 20260901091509 | 76 | 144 | 0.0 | 0.0 | 0.00 | 0.00 | 0.00 | 84 | 1015.4 |
| 20260901091102 | 77 | 0 | 0.0 | 0.0 | 0.00 | 0.00 | 0.00 | 83 | 1015.7 |
| 20260901090202 | 76 | 0 | 0.0 | 0.0 | 0.00 | 0.00 | 0.00 | 84 | 1015.6 |
| 20260901090008 | 76 | 144 | 0.0 | 0.0 | 0.00 | 0.00 | 0.00 | 84 | 1015.3 |
| 20260901085305 | 76 | 0 | 0.0 | 0.0 | 0.00 | 0.00 | 0.00 | 85 | 1015.5 |
| 20260901084507 | 76 | 144 | 0.0 | 0.0 | 0.00 | 0.00 | 0.00 | 85 | 1015.3 |
| 20260901084402 | 76 | 0 | 0.0 | 0.0 | 0.00 | 0.00 | 0.00 | 85 | 1015.6 |
| 20260901083502 | 76 | 0 | 0.0 | 0.0 | 0.00 | 0.00 | 0.00 | 84 | 1015.6 |
| 20260901083012 | 76 | 144 | 0.0 | 0.0 | 0.00 | 0.00 | 0.00 | 84 | 1015.4 |
| 20260901082602 | 77 | 0 | 0.0 | 0.0 | 0.00 | 0.00 | 0.00 | 84 | 1015.8 |
| 20260901081702 | 77 | 144 | 0.9 | 1.7 | 0.00 | 0.00 | 0.00 | 84 | 1015.7 |
| 20260901081603 | 76 | 144 | 0.0 | 1.7 | 0.00 | 0.00 | 0.00 | 84 | 1015.4 |
| 20260901080004 | 76 | 144 | 0.9 | 1.7 | 0.00 | 0.00 | 0.00 | 84 | 1015.3 |